This is the latest recevied weather packets stored in our database for station/object N8VDS-10. If no packets are shown the sender has not sent any weather packets the latest 10 day(s).
| Time | Temp. | Humidity | Pressure | Rain* | Wind** | Luminosity | Snow |
|---|---|---|---|---|---|---|---|
| 1778085855 | 8.89° C | 47% | 1016.5 hPa | 0 mm | - | 210 W/m² | - |
| 1778085554 | 9.44° C | 49% | 1016.8 hPa | 0 mm | - | 206 W/m² | - |
| 1778085247 | 8.89° C | 52% | 1016.9 hPa | 0 mm | - | 256 W/m² | - |
| 1778084943 | 8.89° C | 54% | 1016.8 hPa | 0 mm | - | 623 W/m² | - |
| 1778084641 | 8.33° C | 54% | 1016.7 hPa | 0 mm | - | 774 W/m² | - |
| 1778084338 | 8.33° C | 54% | 1017 hPa | 0 mm | - | 624 W/m² | - |
| 1778084036 | 8.33° C | 55% | 1016.9 hPa | 0 mm | - | 196 W/m² | - |
| 1778083733 | 8.33° C | 54% | 1017.1 hPa | 0 mm | - | 183 W/m² | - |
| 1778083430 | 8.89° C | 53% | 1016.8 hPa | 0 mm | - | 132 W/m² | - |
| 1778083129 | 8.89° C | 55% | 1016.9 hPa | 0 mm | - | 579 W/m² | - |
| 1778082825 | 8.89° C | 55% | 1016.8 hPa | 0 mm | - | 688 W/m² | - |
| 1778081702 | 8.89° C | 57% | 1016.8 hPa | 0 mm | - | 792 W/m² | - |
| 1778081400 | 8.89° C | 56% | 1016.7 hPa | 0 mm | - | 594 W/m² | - |
| 1778081096 | 8.33° C | 56% | 1016.7 hPa | 0 mm | - | 294 W/m² | - |
| 1778080794 | 8.89° C | 55% | 1016.8 hPa | 0 mm | - | 311 W/m² | - |
| 1778080492 | 8.89° C | 56% | 1016.5 hPa | 0 mm | - | 753 W/m² | - |
| 1778080189 | 7.78° C | 59% | 1016.6 hPa | 0 mm | - | 649 W/m² | - |
| 1778079885 | 7.78° C | 58% | 1016.7 hPa | 0 mm | - | 713 W/m² | - |
| 1778079582 | 7.78° C | 60% | 1016.5 hPa | 0 mm | - | 473 W/m² | - |
| 1778079278 | 7.78° C | 58% | 1016.6 hPa | 0 mm | - | 573 W/m² | - |
| 1778078976 | 8.33° C | 58% | 1016.6 hPa | 0 mm | - | 579 W/m² | - |
| 1778078672 | 8.89° C | 57% | 1016.5 hPa | 0 mm | - | 424 W/m² | - |
| 1778078371 | 8.33° C | 59% | 1016.3 hPa | 0 mm | - | 628 W/m² | - |
| 1778078068 | 7.78° C | 59% | 1016.2 hPa | 0 mm | - | 580 W/m² | - |
| 1778077766 | 7.78° C | 59% | 1016.4 hPa | 0 mm | - | 491 W/m² | - |
* Rain latest hour (hover to see other rain measurements)
** Current wind speed in m/s (hover to see current wind gust speed)